owner,sensor,date,latitude,longitude,vertical_datum,mass_concentration_of_oxygen_in_sea_water,qcFlag 
SCCF RECON,ioos:station:SCCF:51:1,2008-01-01T05:00:00Z,26.5545,-82.1715,1.76,6.31,1111122 
SCCF RECON,ioos:station:SCCF:51:1,2008-01-01T06:00:00Z,26.5545,-82.1715,1.71,6.24,1111122 
SCCF RECON,ioos:station:SCCF:51:1,2008-01-01T07:00:00Z,26.5545,-82.1715,1.668,6.17,1111122 
SCCF RECON,ioos:station:SCCF:51:1,2008-01-01T08:00:00Z,26.5545,-82.1715,1.652,6.25,1111122 
SCCF RECON,ioos:station:SCCF:51:1,2008-01-01T09:00:00Z,26.5545,-82.1715,1.69,6.22,1111122 
SCCF RECON,ioos:station:SCCF:51:1,2008-01-01T10:00:00Z,26.5545,-82.1715,1.75,6.31,1111122 
SCCF RECON,ioos:station:SCCF:51:1,2008-01-01T11:00:00Z,26.5545,-82.1715,1.82,6.07,1111122 
SCCF RECON,ioos:station:SCCF:51:1,2008-01-01T12:00:00Z,26.5545,-82.1715,1.88,6.01,1111122 
SCCF RECON,ioos:station:SCCF:51:1,2008-01-01T14:00:00Z,26.5545,-82.1715,1.917,5.7,1111122 
SCCF RECON,ioos:station:SCCF:51:1,2008-01-01T15:00:00Z,26.5545,-82.1715,1.866,5.77,1111122 
SCCF RECON,ioos:station:SCCF:51:1,2008-01-01T16:00:00Z,26.5545,-82.1715,1.825,5.64,1111122 
SCCF RECON,ioos:station:SCCF:51:1,2008-01-01T17:00:00Z,26.5545,-82.1715,1.75,5.96,1111122 
SCCF RECON,ioos:station:SCCF:51:1,2008-01-01T18:00:00Z,26.5545,-82.1715,1.687,6.02,1111122 
SCCF RECON,ioos:station:SCCF:51:1,2008-01-01T19:00:00Z,26.5545,-82.1715,1.665,5.92,1111122 
SCCF RECON,ioos:station:SCCF:51:1,2008-01-01T20:00:00Z,26.5545,-82.1715,1.722,6.26,1111122 
SCCF RECON,ioos:station:SCCF:51:1,2008-01-01T21:00:00Z,26.5545,-82.1715,1.798,6.37,1111122 
SCCF RECON,ioos:station:SCCF:51:1,2008-01-01T22:00:00Z,26.5545,-82.1715,1.859,6.7,1111122 
SCCF RECON,ioos:station:SCCF:51:1,2008-01-01T23:00:00Z,26.5545,-82.1715,1.888,6.47,1111122 
SCCF RECON,ioos:station:SCCF:51:1,2008-01-02T00:00:00Z,26.5545,-82.1715,1.868,6.44,1111122 
SCCF RECON,ioos:station:SCCF:51:1,2008-01-02T01:00:00Z,26.5545,-82.1715,1.807,6.5,1111122 
SCCF RECON,ioos:station:SCCF:51:1,2008-01-02T02:00:00Z,26.5545,-82.1715,1.736,6.51,1111122 
SCCF RECON,ioos:station:SCCF:51:1,2008-01-02T03:00:00Z,26.5545,-82.1715,1.675,6.4,1111122 
SCCF RECON,ioos:station:SCCF:51:1,2008-01-02T04:00:00Z,26.5545,-82.1715,1.611,6.49,1111122 
SCCF RECON,ioos:station:SCCF:51:1,2008-01-02T05:00:00Z,26.5545,-82.1715,1.554,6.46,1111122 
SCCF RECON,ioos:station:SCCF:51:1,2008-01-02T06:00:00Z,26.5545,-82.1715,1.489,6.51,1111122 
SCCF RECON,ioos:station:SCCF:51:1,2008-01-02T07:00:00Z,26.5545,-82.1715,1.401,6.5,1111122 
SCCF RECON,ioos:station:SCCF:51:1,2008-01-02T08:00:00Z,26.5545,-82.1715,1.327,6.63,1111122 
SCCF RECON,ioos:station:SCCF:51:1,2008-01-02T09:00:00Z,26.5545,-82.1715,1.242,6.72,1111122 
SCCF RECON,ioos:station:SCCF:51:1,2008-01-02T10:00:00Z,26.5545,-82.1715,1.19,6.71,1111122 
SCCF RECON,ioos:station:SCCF:51:1,2008-01-02T11:00:00Z,26.5545,-82.1715,1.201,6.71,1111122 
SCCF RECON,ioos:station:SCCF:51:1,2008-01-02T12:00:00Z,26.5545,-82.1715,1.247,6.75,1111122 
SCCF RECON,ioos:station:SCCF:51:1,2008-01-02T13:00:00Z,26.5545,-82.1715,1.3,6.8,1111122 
SCCF RECON,ioos:station:SCCF:51:1,2008-01-02T14:00:00Z,26.5545,-82.1715,1.358,6.92,1111122 
SCCF RECON,ioos:station:SCCF:51:1,2008-01-02T15:00:00Z,26.5545,-82.1715,1.389,6.94,1111122 
SCCF RECON,ioos:station:SCCF:51:1,2008-01-02T16:00:00Z,26.5545,-82.1715,1.425,7.03,1111122 
SCCF RECON,ioos:station:SCCF:51:1,2008-01-02T17:00:00Z,26.5545,-82.1715,1.443,6.93,1111122 
SCCF RECON,ioos:station:SCCF:51:1,2008-01-02T18:00:00Z,26.5545,-82.1715,1.453,6.92,1111122 
SCCF RECON,ioos:station:SCCF:51:1,2008-01-02T19:00:00Z,26.5545,-82.1715,1.485,6.82,1111122 
SCCF RECON,ioos:station:SCCF:51:1,2008-01-02T20:00:00Z,26.5545,-82.1715,1.53,6.74,1111122 
SCCF RECON,ioos:station:SCCF:51:1,2008-01-02T21:00:00Z,26.5545,-82.1715,1.582,6.87,1111122 
SCCF RECON,ioos:station:SCCF:51:1,2008-01-02T23:00:00Z,26.5545,-82.1715,1.701,7.05,1111122 
SCCF RECON,ioos:station:SCCF:51:1,2008-01-03T00:00:00Z,26.5545,-82.1715,1.75,7.04,1111122 
SCCF RECON,ioos:station:SCCF:51:1,2008-01-03T01:00:00Z,26.5545,-82.1715,1.764,7.12,1111122 
SCCF RECON,ioos:station:SCCF:51:1,2008-01-03T02:00:00Z,26.5545,-82.1715,1.733,7.17,1111122 
SCCF RECON,ioos:station:SCCF:51:1,2008-01-03T03:00:00Z,26.5545,-82.1715,1.685,7.23,1111122 
SCCF RECON,ioos:station:SCCF:51:1,2008-01-03T05:00:00Z,26.5545,-82.1715,1.549,7.41,1111122 
SCCF RECON,ioos:station:SCCF:51:1,2008-01-03T06:00:00Z,26.5545,-82.1715,1.465,7.47,1111122 
SCCF RECON,ioos:station:SCCF:51:1,2008-01-03T07:00:00Z,26.5545,-82.1715,1.369,7.49,1111122 
SCCF RECON,ioos:station:SCCF:51:1,2008-01-03T08:00:00Z,26.5545,-82.1715,1.271,7.53,1111122 
SCCF RECON,ioos:station:SCCF:51:1,2008-01-03T09:00:00Z,26.5545,-82.1715,1.184,7.68,1111122 
SCCF RECON,ioos:station:SCCF:51:1,2008-01-03T10:00:00Z,26.5545,-82.1715,1.129,7.75,1111122 
SCCF RECON,ioos:station:SCCF:51:1,2008-01-03T11:00:00Z,26.5545,-82.1715,1.119,7.77,1111122 
SCCF RECON,ioos:station:SCCF:51:1,2008-01-03T12:00:00Z,26.5545,-82.1715,1.151,7.78,1111122 
SCCF RECON,ioos:station:SCCF:51:1,2008-01-03T13:00:00Z,26.5545,-82.1715,1.206,7.97,1111122 
SCCF RECON,ioos:station:SCCF:51:1,2008-01-03T14:00:00Z,26.5545,-82.1715,1.259,7.98,1111122 
SCCF RECON,ioos:station:SCCF:51:1,2008-01-03T15:00:00Z,26.5545,-82.1715,1.32,8.0,1111122 
SCCF RECON,ioos:station:SCCF:51:1,2008-01-03T16:00:00Z,26.5545,-82.1715,1.361,7.92,1111122 
SCCF RECON,ioos:station:SCCF:51:1,2008-01-03T17:00:00Z,26.5545,-82.1715,1.39,7.78,1111122 
SCCF RECON,ioos:station:SCCF:51:1,2008-01-03T18:00:00Z,26.5545,-82.1715,1.423,7.87,1111122 
SCCF RECON,ioos:station:SCCF:51:1,2008-01-03T19:00:00Z,26.5545,-82.1715,1.462,8.05,1111122 
SCCF RECON,ioos:station:SCCF:51:1,2008-01-03T20:00:00Z,26.5545,-82.1715,1.516,8.16,1111122 
SCCF RECON,ioos:station:SCCF:51:1,2008-01-03T21:00:00Z,26.5545,-82.1715,1.584,8.15,1111122 
SCCF RECON,ioos:station:SCCF:51:1,2008-01-03T22:00:00Z,26.5545,-82.1715,1.662,8.13,1111122 
SCCF RECON,ioos:station:SCCF:51:1,2008-01-03T23:00:00Z,26.5545,-82.1715,1.73,8.11,1111122 
SCCF RECON,ioos:station:SCCF:51:1,2008-01-04T00:00:00Z,26.5545,-82.1715,1.796,8.0,1111122 
SCCF RECON,ioos:station:SCCF:51:1,2008-01-04T01:00:00Z,26.5545,-82.1715,1.826,8.03,1111122 
SCCF RECON,ioos:station:SCCF:51:1,2008-01-04T02:00:00Z,26.5545,-82.1715,1.821,7.73,1111122 
SCCF RECON,ioos:station:SCCF:51:1,2008-01-04T03:00:00Z,26.5545,-82.1715,1.771,7.86,1111122 
SCCF RECON,ioos:station:SCCF:51:1,2008-01-04T04:00:00Z,26.5545,-82.1715,1.704,7.99,1111122 
SCCF RECON,ioos:station:SCCF:51:1,2008-01-04T05:00:00Z,26.5545,-82.1715,1.623,8.22,1111122 
SCCF RECON,ioos:station:SCCF:51:1,2008-01-04T06:00:00Z,26.5545,-82.1715,1.522,8.02,1111122 
SCCF RECON,ioos:station:SCCF:51:1,2008-01-04T07:00:00Z,26.5545,-82.1715,1.431,8.0,1111122 
SCCF RECON,ioos:station:SCCF:51:1,2008-01-04T08:00:00Z,26.5545,-82.1715,1.333,7.91,1111122 
SCCF RECON,ioos:station:SCCF:51:1,2008-01-04T09:00:00Z,26.5545,-82.1715,1.269,7.88,1111122 
SCCF RECON,ioos:station:SCCF:51:1,2008-01-04T10:00:00Z,26.5545,-82.1715,1.228,7.92,1111122 
SCCF RECON,ioos:station:SCCF:51:1,2008-01-04T11:00:00Z,26.5545,-82.1715,1.25,7.91,1111122 
SCCF RECON,ioos:station:SCCF:51:1,2008-01-04T12:00:00Z,26.5545,-82.1715,1.312,7.92,1111122 
SCCF RECON,ioos:station:SCCF:51:1,2008-01-04T13:00:00Z,26.5545,-82.1715,1.394,7.72,1111122 
SCCF RECON,ioos:station:SCCF:51:1,2008-01-04T14:00:00Z,26.5545,-82.1715,1.486,7.64,1111122 
SCCF RECON,ioos:station:SCCF:51:1,2008-01-04T15:00:00Z,26.5545,-82.1715,1.578,7.57,1111122 
SCCF RECON,ioos:station:SCCF:51:1,2008-01-04T16:00:00Z,26.5545,-82.1715,1.648,7.43,1111122 
SCCF RECON,ioos:station:SCCF:51:1,2008-01-04T17:00:00Z,26.5545,-82.1715,1.699,7.42,1111122 
SCCF RECON,ioos:station:SCCF:51:1,2008-01-04T18:00:00Z,26.5545,-82.1715,1.733,7.51,1111122 
SCCF RECON,ioos:station:SCCF:51:1,2008-01-04T19:00:00Z,26.5545,-82.1715,1.734,7.47,1111122 
SCCF RECON,ioos:station:SCCF:51:1,2008-01-04T20:00:00Z,26.5545,-82.1715,1.75,7.53,1111122 
SCCF RECON,ioos:station:SCCF:51:1,2008-01-04T21:00:00Z,26.5545,-82.1715,1.784,7.6,1111122 
SCCF RECON,ioos:station:SCCF:51:1,2008-01-04T22:00:00Z,26.5545,-82.1715,1.839,7.89,1111122 
SCCF RECON,ioos:station:SCCF:51:1,2008-01-04T23:00:00Z,26.5545,-82.1715,1.902,7.82,1111122 
SCCF RECON,ioos:station:SCCF:51:1,2008-01-05T00:00:00Z,26.5545,-82.1715,1.97,7.77,1111122 
SCCF RECON,ioos:station:SCCF:51:1,2008-01-05T01:00:00Z,26.5545,-82.1715,2.012,7.37,1111122 
SCCF RECON,ioos:station:SCCF:51:1,2008-01-05T02:00:00Z,26.5545,-82.1715,2.005,7.25,1111122 
SCCF RECON,ioos:station:SCCF:51:1,2008-01-05T03:00:00Z,26.5545,-82.1715,1.977,7.33,1111122 
SCCF RECON,ioos:station:SCCF:51:1,2008-01-05T04:00:00Z,26.5545,-82.1715,1.912,7.64,1111122 
SCCF RECON,ioos:station:SCCF:51:1,2008-01-05T05:00:00Z,26.5545,-82.1715,1.833,7.77,1111122 
SCCF RECON,ioos:station:SCCF:51:1,2008-01-05T06:00:00Z,26.5545,-82.1715,1.735,7.67,1111122 
SCCF RECON,ioos:station:SCCF:51:1,2008-01-05T07:00:00Z,26.5545,-82.1715,1.62,7.54,1111122 
SCCF RECON,ioos:station:SCCF:51:1,2008-01-05T08:00:00Z,26.5545,-82.1715,1.509,7.49,1111122 
SCCF RECON,ioos:station:SCCF:51:1,2008-01-05T09:00:00Z,26.5545,-82.1715,1.414,7.52,1111122 
SCCF RECON,ioos:station:SCCF:51:1,2008-01-05T11:00:00Z,26.5545,-82.1715,1.305,7.4,1111122 
SCCF RECON,ioos:station:SCCF:51:1,2008-01-05T12:00:00Z,26.5545,-82.1715,1.352,7.51,1111122 
SCCF RECON,ioos:station:SCCF:51:1,2008-01-05T13:00:00Z,26.5545,-82.1715,1.437,7.61,1111122 
SCCF RECON,ioos:station:SCCF:51:1,2008-01-05T14:00:00Z,26.5545,-82.1715,1.55,7.41,1111122 
SCCF RECON,ioos:station:SCCF:51:1,2008-01-05T15:00:00Z,26.5545,-82.1715,1.653,7.58,1111122 
SCCF RECON,ioos:station:SCCF:51:1,2008-01-05T16:00:00Z,26.5545,-82.1715,1.731,7.51,1111122 
SCCF RECON,ioos:station:SCCF:51:1,2008-01-05T17:00:00Z,26.5545,-82.1715,1.809,7.35,1111122 
SCCF RECON,ioos:station:SCCF:51:1,2008-01-05T18:00:00Z,26.5545,-82.1715,1.852,7.6,1111122 
SCCF RECON,ioos:station:SCCF:51:1,2008-01-05T19:00:00Z,26.5545,-82.1715,1.861,7.61,1111122 
SCCF RECON,ioos:station:SCCF:51:1,2008-01-05T20:00:00Z,26.5545,-82.1715,1.851,7.57,1111122 
SCCF RECON,ioos:station:SCCF:51:1,2008-01-05T21:00:00Z,26.5545,-82.1715,1.842,7.5,1111122 
SCCF RECON,ioos:station:SCCF:51:1,2008-01-05T22:00:00Z,26.5545,-82.1715,1.86,7.62,1111122 
SCCF RECON,ioos:station:SCCF:51:1,2008-01-05T23:00:00Z,26.5545,-82.1715,1.909,7.71,1111122 
SCCF RECON,ioos:station:SCCF:51:1,2008-01-06T00:00:00Z,26.5545,-82.1715,1.972,7.68,1111122 
SCCF RECON,ioos:station:SCCF:51:1,2008-01-06T01:00:00Z,26.5545,-82.1715,2.042,7.41,1111122 
SCCF RECON,ioos:station:SCCF:51:1,2008-01-06T02:00:00Z,26.5545,-82.1715,2.11,7.1,1111122 
SCCF RECON,ioos:station:SCCF:51:1,2008-01-06T03:00:00Z,26.5545,-82.1715,2.135,7.02,1111122 
SCCF RECON,ioos:station:SCCF:51:1,2008-01-06T04:00:00Z,26.5545,-82.1715,2.1,6.9,1111122 
SCCF RECON,ioos:station:SCCF:51:1,2008-01-06T05:00:00Z,26.5545,-82.1715,2.03,7.19,1111122 
SCCF RECON,ioos:station:SCCF:51:1,2008-01-06T06:00:00Z,26.5545,-82.1715,1.93,7.44,1111122 
SCCF RECON,ioos:station:SCCF:51:1,2008-01-06T07:00:00Z,26.5545,-82.1715,1.81,7.57,1111122 
SCCF RECON,ioos:station:SCCF:51:1,2008-01-06T08:00:00Z,26.5545,-82.1715,1.69,7.52,1111122 
SCCF RECON,ioos:station:SCCF:51:1,2008-01-06T09:00:00Z,26.5545,-82.1715,1.573,7.51,1111122 
SCCF RECON,ioos:station:SCCF:51:1,2008-01-06T10:00:00Z,26.5545,-82.1715,1.46,7.5,1111122 
SCCF RECON,ioos:station:SCCF:51:1,2008-01-06T11:00:00Z,26.5545,-82.1715,1.391,7.36,1111122 
SCCF RECON,ioos:station:SCCF:51:1,2008-01-06T12:00:00Z,26.5545,-82.1715,1.37,7.39,1111122 
SCCF RECON,ioos:station:SCCF:51:1,2008-01-06T13:00:00Z,26.5545,-82.1715,1.43,7.53,1111122 
SCCF RECON,ioos:station:SCCF:51:1,2008-01-06T14:00:00Z,26.5545,-82.1715,1.532,7.77,1111122 
SCCF RECON,ioos:station:SCCF:51:1,2008-01-06T16:00:00Z,26.5545,-82.1715,1.748,7.41,1111122 
SCCF RECON,ioos:station:SCCF:51:1,2008-01-06T17:00:00Z,26.5545,-82.1715,1.812,7.39,1111122 
SCCF RECON,ioos:station:SCCF:51:1,2008-01-06T18:00:00Z,26.5545,-82.1715,1.851,7.52,1111122 
SCCF RECON,ioos:station:SCCF:51:1,2008-01-06T19:00:00Z,26.5545,-82.1715,1.859,7.6,1111122 
SCCF RECON,ioos:station:SCCF:51:1,2008-01-06T20:00:00Z,26.5545,-82.1715,1.85,7.56,1111122 
SCCF RECON,ioos:station:SCCF:51:1,2008-01-06T21:00:00Z,26.5545,-82.1715,1.846,7.58,1111122 
SCCF RECON,ioos:station:SCCF:51:1,2008-01-06T22:00:00Z,26.5545,-82.1715,1.86,7.65,1111122 
SCCF RECON,ioos:station:SCCF:51:1,2008-01-06T23:00:00Z,26.5545,-82.1715,1.89,7.72,1111122 
SCCF RECON,ioos:station:SCCF:51:1,2008-01-07T00:00:00Z,26.5545,-82.1715,1.948,7.76,1111122 
SCCF RECON,ioos:station:SCCF:51:1,2008-01-07T01:00:00Z,26.5545,-82.1715,2.01,7.97,1111122 
SCCF RECON,ioos:station:SCCF:51:1,2008-01-07T02:00:00Z,26.5545,-82.1715,2.076,8.19,1111122 
SCCF RECON,ioos:station:SCCF:51:1,2008-01-07T03:00:00Z,26.5545,-82.1715,2.14,7.24,1111122 
SCCF RECON,ioos:station:SCCF:51:1,2008-01-07T04:00:00Z,26.5545,-82.1715,2.17,7.06,1111122 
SCCF RECON,ioos:station:SCCF:51:1,2008-01-07T05:00:00Z,26.5545,-82.1715,2.13,7.07,1111122 
SCCF RECON,ioos:station:SCCF:51:1,2008-01-07T06:00:00Z,26.5545,-82.1715,2.059,7.72,1111122 
SCCF RECON,ioos:station:SCCF:51:1,2008-01-07T07:00:00Z,26.5545,-82.1715,1.94,7.58,1111122 
SCCF RECON,ioos:station:SCCF:51:1,2008-01-07T08:00:00Z,26.5545,-82.1715,1.82,7.55,1111122 
SCCF RECON,ioos:station:SCCF:51:1,2008-01-07T09:00:00Z,26.5545,-82.1715,1.69,7.58,1111122 
SCCF RECON,ioos:station:SCCF:51:1,2008-01-07T10:00:00Z,26.5545,-82.1715,1.57,7.55,1111122 
SCCF RECON,ioos:station:SCCF:51:1,2008-01-07T11:00:00Z,26.5545,-82.1715,1.464,7.52,1111122 
SCCF RECON,ioos:station:SCCF:51:1,2008-01-07T12:00:00Z,26.5545,-82.1715,1.394,7.47,1111122 
SCCF RECON,ioos:station:SCCF:51:1,2008-01-07T13:00:00Z,26.5545,-82.1715,1.409,7.49,1111122 
SCCF RECON,ioos:station:SCCF:51:1,2008-01-07T14:00:00Z,26.5545,-82.1715,1.499,7.6,1111122 
SCCF RECON,ioos:station:SCCF:51:1,2008-01-07T15:00:00Z,26.5545,-82.1715,1.625,7.66,1111122 
SCCF RECON,ioos:station:SCCF:51:1,2008-01-07T16:00:00Z,26.5545,-82.1715,1.75,7.49,1111122 
SCCF RECON,ioos:station:SCCF:51:1,2008-01-07T17:00:00Z,26.5545,-82.1715,1.898,7.22,1111122 
SCCF RECON,ioos:station:SCCF:51:1,2008-01-07T18:00:00Z,26.5545,-82.1715,1.913,6.37,1111122 
SCCF RECON,ioos:station:SCCF:51:1,2008-01-07T19:00:00Z,26.5545,-82.1715,1.938,7.76,1111122 
SCCF RECON,ioos:station:SCCF:51:1,2008-01-07T20:00:00Z,26.5545,-82.1715,1.925,7.61,1111122 
SCCF RECON,ioos:station:SCCF:51:1,2008-01-07T21:00:00Z,26.5545,-82.1715,1.896,7.89,1111122 
SCCF RECON,ioos:station:SCCF:51:1,2008-01-07T22:00:00Z,26.5545,-82.1715,1.867,8.07,1111122 
SCCF RECON,ioos:station:SCCF:51:1,2008-01-07T23:00:00Z,26.5545,-82.1715,1.871,8.11,1111122 
SCCF RECON,ioos:station:SCCF:51:1,2008-01-08T00:00:00Z,26.5545,-82.1715,1.93,7.98,1111122 
SCCF RECON,ioos:station:SCCF:51:1,2008-01-08T01:00:00Z,26.5545,-82.1715,1.0,-9999.0,1111122 
SCCF RECON,ioos:station:SCCF:51:1,2008-01-08T02:00:00Z,26.5545,-82.1715,1.0,-9999.0,1111122 
SCCF RECON,ioos:station:SCCF:51:1,2008-01-08T03:00:00Z,26.5545,-82.1715,1.0,-9999.0,1111122 
SCCF RECON,ioos:station:SCCF:51:1,2008-01-08T04:00:00Z,26.5545,-82.1715,1.0,-9999.0,1111122 
SCCF RECON,ioos:station:SCCF:51:1,2008-01-08T05:00:00Z,26.5545,-82.1715,1.0,-9999.0,1111122 
SCCF RECON,ioos:station:SCCF:51:1,2008-01-08T06:00:00Z,26.5545,-82.1715,1.0,-9999.0,1111122 
SCCF RECON,ioos:station:SCCF:51:1,2008-01-08T07:00:00Z,26.5545,-82.1715,1.0,-9999.0,1111122 
SCCF RECON,ioos:station:SCCF:51:1,2008-01-08T08:00:00Z,26.5545,-82.1715,1.0,-9999.0,1111122 
SCCF RECON,ioos:station:SCCF:51:1,2008-01-08T09:00:00Z,26.5545,-82.1715,1.0,-9999.0,1111122 
SCCF RECON,ioos:station:SCCF:51:1,2008-01-08T10:00:00Z,26.5545,-82.1715,1.0,-9999.0,1111122 
SCCF RECON,ioos:station:SCCF:51:1,2008-01-08T11:00:00Z,26.5545,-82.1715,1.0,-9999.0,1111122 
SCCF RECON,ioos:station:SCCF:51:1,2008-01-08T12:00:00Z,26.5545,-82.1715,1.0,-9999.0,1111122 
SCCF RECON,ioos:station:SCCF:51:1,2008-01-08T13:00:00Z,26.5545,-82.1715,1.0,-9999.0,1111122 
SCCF RECON,ioos:station:SCCF:51:1,2008-01-08T14:00:00Z,26.5545,-82.1715,1.0,-9999.0,1111122 
SCCF RECON,ioos:station:SCCF:51:1,2008-01-08T15:00:00Z,26.5545,-82.1715,1.0,-9999.0,1111122 
SCCF RECON,ioos:station:SCCF:51:1,2008-01-08T16:00:00Z,26.5545,-82.1715,1.0,-9999.0,1111122 
SCCF RECON,ioos:station:SCCF:51:1,2008-01-08T17:00:00Z,26.5545,-82.1715,1.0,-9999.0,1111122 
SCCF RECON,ioos:station:SCCF:51:1,2008-01-08T18:00:00Z,26.5545,-82.1715,1.0,-9999.0,1111122 
SCCF RECON,ioos:station:SCCF:51:1,2008-01-08T19:00:00Z,26.5545,-82.1715,1.0,-9999.0,1111122 
SCCF RECON,ioos:station:SCCF:51:1,2008-01-08T20:00:00Z,26.5545,-82.1715,1.0,-9999.0,1111122 
SCCF RECON,ioos:station:SCCF:51:1,2008-01-08T21:00:00Z,26.5545,-82.1715,1.0,-9999.0,1111122 
SCCF RECON,ioos:station:SCCF:51:1,2008-01-08T22:00:00Z,26.5545,-82.1715,1.0,-9999.0,1111122 
SCCF RECON,ioos:station:SCCF:51:1,2008-01-08T23:00:00Z,26.5545,-82.1715,1.0,-9999.0,1111122 
SCCF RECON,ioos:station:SCCF:51:1,2008-01-09T00:00:00Z,26.5545,-82.1715,1.0,-9999.0,1111122 
SCCF RECON,ioos:station:SCCF:51:1,2008-01-09T01:00:00Z,26.5545,-82.1715,1.0,-9999.0,1111122 
SCCF RECON,ioos:station:SCCF:51:1,2008-01-09T02:00:00Z,26.5545,-82.1715,1.0,-9999.0,1111122 
SCCF RECON,ioos:station:SCCF:51:1,2008-01-09T03:00:00Z,26.5545,-82.1715,1.0,-9999.0,1111122 
SCCF RECON,ioos:station:SCCF:51:1,2008-01-09T04:00:00Z,26.5545,-82.1715,1.0,-9999.0,1111122 
SCCF RECON,ioos:station:SCCF:51:1,2008-01-09T06:00:00Z,26.5545,-82.1715,1.0,-9999.0,1111122 
SCCF RECON,ioos:station:SCCF:51:1,2008-01-09T07:00:00Z,26.5545,-82.1715,1.0,-9999.0,1111122 
SCCF RECON,ioos:station:SCCF:51:1,2008-01-09T08:00:00Z,26.5545,-82.1715,1.0,-9999.0,1111122 
SCCF RECON,ioos:station:SCCF:51:1,2008-01-09T09:00:00Z,26.5545,-82.1715,1.0,-9999.0,1111122 
SCCF RECON,ioos:station:SCCF:51:1,2008-01-09T10:00:00Z,26.5545,-82.1715,1.0,-9999.0,1111122 
SCCF RECON,ioos:station:SCCF:51:1,2008-01-09T11:00:00Z,26.5545,-82.1715,1.0,-9999.0,1111122 
SCCF RECON,ioos:station:SCCF:51:1,2008-01-09T12:00:00Z,26.5545,-82.1715,1.0,-9999.0,1111122 
SCCF RECON,ioos:station:SCCF:51:1,2008-01-09T13:00:00Z,26.5545,-82.1715,1.0,-9999.0,1111122 
SCCF RECON,ioos:station:SCCF:51:1,2008-01-09T14:00:00Z,26.5545,-82.1715,1.0,-9999.0,1111122 
SCCF RECON,ioos:station:SCCF:51:1,2008-01-09T15:00:00Z,26.5545,-82.1715,1.0,-9999.0,1111122 
SCCF RECON,ioos:station:SCCF:51:1,2008-01-09T16:00:00Z,26.5545,-82.1715,1.0,-9999.0,1111122 
SCCF RECON,ioos:station:SCCF:51:1,2008-01-09T17:00:00Z,26.5545,-82.1715,1.706,7.64,1111122 
SCCF RECON,ioos:station:SCCF:51:1,2008-01-09T18:00:00Z,26.5545,-82.1715,1.768,7.34,1111122 
SCCF RECON,ioos:station:SCCF:51:1,2008-01-09T19:00:00Z,26.5545,-82.1715,1.833,7.79,1111122 
SCCF RECON,ioos:station:SCCF:51:1,2008-01-09T20:00:00Z,26.5545,-82.1715,1.858,7.85,1111122 
SCCF RECON,ioos:station:SCCF:51:1,2008-01-09T21:00:00Z,26.5545,-82.1715,1.82,7.97,1111122 
SCCF RECON,ioos:station:SCCF:51:1,2008-01-09T22:00:00Z,26.5545,-82.1715,1.765,8.27,1111122 
SCCF RECON,ioos:station:SCCF:51:1,2008-01-09T23:00:00Z,26.5545,-82.1715,1.716,8.34,1111122 
SCCF RECON,ioos:station:SCCF:51:1,2008-01-10T00:00:00Z,26.5545,-82.1715,1.713,8.23,1111122 
SCCF RECON,ioos:station:SCCF:51:1,2008-01-10T01:00:00Z,26.5545,-82.1715,1.742,8.25,1111122 
SCCF RECON,ioos:station:SCCF:51:1,2008-01-10T02:00:00Z,26.5545,-82.1715,1.802,8.01,1111122 
SCCF RECON,ioos:station:SCCF:51:1,2008-01-10T03:00:00Z,26.5545,-82.1715,1.89,7.85,1111122 
SCCF RECON,ioos:station:SCCF:51:1,2008-01-10T04:00:00Z,26.5545,-82.1715,1.994,7.6,1111122 
SCCF RECON,ioos:station:SCCF:51:1,2008-01-10T05:00:00Z,26.5545,-82.1715,2.078,7.5,1111122 
SCCF RECON,ioos:station:SCCF:51:1,2008-01-10T06:00:00Z,26.5545,-82.1715,2.11,7.37,1111122 
SCCF RECON,ioos:station:SCCF:51:1,2008-01-10T07:00:00Z,26.5545,-82.1715,2.052,7.38,1111122 
SCCF RECON,ioos:station:SCCF:51:1,2008-01-10T08:00:00Z,26.5545,-82.1715,1.96,7.39,1111122 
SCCF RECON,ioos:station:SCCF:51:1,2008-01-10T10:00:00Z,26.5545,-82.1715,1.71,7.55,1111122 
SCCF RECON,ioos:station:SCCF:51:1,2008-01-10T11:00:00Z,26.5545,-82.1715,1.581,7.77,1111122 
SCCF RECON,ioos:station:SCCF:51:1,2008-01-10T12:00:00Z,26.5545,-82.1715,1.47,7.89,1111122 
SCCF RECON,ioos:station:SCCF:51:1,2008-01-10T13:00:00Z,26.5545,-82.1715,1.37,7.84,1111122 
SCCF RECON,ioos:station:SCCF:51:1,2008-01-10T14:00:00Z,26.5545,-82.1715,1.304,7.84,1111122 
SCCF RECON,ioos:station:SCCF:51:1,2008-01-10T15:00:00Z,26.5545,-82.1715,1.339,8.07,1111122 
SCCF RECON,ioos:station:SCCF:51:1,2008-01-10T16:00:00Z,26.5545,-82.1715,1.431,8.21,1111122 
SCCF RECON,ioos:station:SCCF:51:1,2008-01-10T17:00:00Z,26.5545,-82.1715,1.558,7.64,1111122 
SCCF RECON,ioos:station:SCCF:51:1,2008-01-10T18:00:00Z,26.5545,-82.1715,1.677,7.54,1111122 
SCCF RECON,ioos:station:SCCF:51:1,2008-01-10T19:00:00Z,26.5545,-82.1715,1.762,7.54,1111122 
SCCF RECON,ioos:station:SCCF:51:1,2008-01-10T20:00:00Z,26.5545,-82.1715,1.805,7.61,1111122 
SCCF RECON,ioos:station:SCCF:51:1,2008-01-10T21:00:00Z,26.5545,-82.1715,1.798,7.75,1111122 
SCCF RECON,ioos:station:SCCF:51:1,2008-01-10T22:00:00Z,26.5545,-82.1715,1.75,7.99,1111122 
SCCF RECON,ioos:station:SCCF:51:1,2008-01-10T23:00:00Z,26.5545,-82.1715,1.7,8.1,1111122 
SCCF RECON,ioos:station:SCCF:51:1,2008-01-11T00:00:00Z,26.5545,-82.1715,1.666,8.13,1111122 
SCCF RECON,ioos:station:SCCF:51:1,2008-01-11T01:00:00Z,26.5545,-82.1715,1.67,8.37,1111122 
SCCF RECON,ioos:station:SCCF:51:1,2008-01-11T02:00:00Z,26.5545,-82.1715,1.73,8.09,1111122 
SCCF RECON,ioos:station:SCCF:51:1,2008-01-11T03:00:00Z,26.5545,-82.1715,1.81,8.15,1111122 
SCCF RECON,ioos:station:SCCF:51:1,2008-01-11T04:00:00Z,26.5545,-82.1715,1.91,7.54,1111122 
SCCF RECON,ioos:station:SCCF:51:1,2008-01-11T05:00:00Z,26.5545,-82.1715,2.01,7.31,1111122 
SCCF RECON,ioos:station:SCCF:51:1,2008-01-11T06:00:00Z,26.5545,-82.1715,2.07,7.17,1111122 
SCCF RECON,ioos:station:SCCF:51:1,2008-01-11T07:00:00Z,26.5545,-82.1715,2.06,7.05,1111122 
SCCF RECON,ioos:station:SCCF:51:1,2008-01-11T08:00:00Z,26.5545,-82.1715,2.0,7.07,1111122 
SCCF RECON,ioos:station:SCCF:51:1,2008-01-11T09:00:00Z,26.5545,-82.1715,1.92,7.38,1111122 
SCCF RECON,ioos:station:SCCF:51:1,2008-01-11T10:00:00Z,26.5545,-82.1715,1.82,7.38,1111122 
SCCF RECON,ioos:station:SCCF:51:1,2008-01-11T11:00:00Z,26.5545,-82.1715,1.69,7.64,1111122 
SCCF RECON,ioos:station:SCCF:51:1,2008-01-11T12:00:00Z,26.5545,-82.1715,1.57,7.41,1111122 
SCCF RECON,ioos:station:SCCF:51:1,2008-01-11T13:00:00Z,26.5545,-82.1715,1.466,7.36,1111122 
SCCF RECON,ioos:station:SCCF:51:1,2008-01-11T14:00:00Z,26.5545,-82.1715,1.38,7.5,1111122 
SCCF RECON,ioos:station:SCCF:51:1,2008-01-11T15:00:00Z,26.5545,-82.1715,1.36,7.7,1111122 
SCCF RECON,ioos:station:SCCF:51:1,2008-01-11T16:00:00Z,26.5545,-82.1715,1.429,7.98,1111122 
SCCF RECON,ioos:station:SCCF:51:1,2008-01-11T17:00:00Z,26.5545,-82.1715,1.548,7.89,1111122 
SCCF RECON,ioos:station:SCCF:51:1,2008-01-11T18:00:00Z,26.5545,-82.1715,1.673,7.3,1111122 
SCCF RECON,ioos:station:SCCF:51:1,2008-01-11T19:00:00Z,26.5545,-82.1715,1.769,7.37,1111122 
SCCF RECON,ioos:station:SCCF:51:1,2008-01-11T20:00:00Z,26.5545,-82.1715,1.827,7.35,1111122 
SCCF RECON,ioos:station:SCCF:51:1,2008-01-11T22:00:00Z,26.5545,-82.1715,1.81,7.7,1111122 
SCCF RECON,ioos:station:SCCF:51:1,2008-01-11T23:00:00Z,26.5545,-82.1715,1.76,7.62,1111122 
SCCF RECON,ioos:station:SCCF:51:1,2008-01-12T00:00:00Z,26.5545,-82.1715,1.698,7.6,1111122 
SCCF RECON,ioos:station:SCCF:51:1,2008-01-12T01:00:00Z,26.5545,-82.1715,1.64,7.49,1111122 
SCCF RECON,ioos:station:SCCF:51:1,2008-01-12T02:00:00Z,26.5545,-82.1715,1.623,7.67,1111122 
SCCF RECON,ioos:station:SCCF:51:1,2008-01-12T03:00:00Z,26.5545,-82.1715,1.667,7.68,1111122 
SCCF RECON,ioos:station:SCCF:51:1,2008-01-12T04:00:00Z,26.5545,-82.1715,1.74,7.53,1111122 
SCCF RECON,ioos:station:SCCF:51:1,2008-01-12T05:00:00Z,26.5545,-82.1715,1.85,6.91,1111122 
SCCF RECON,ioos:station:SCCF:51:1,2008-01-12T06:00:00Z,26.5545,-82.1715,1.96,7.06,1111122 
SCCF RECON,ioos:station:SCCF:51:1,2008-01-12T07:00:00Z,26.5545,-82.1715,2.02,6.62,1111122 
SCCF RECON,ioos:station:SCCF:51:1,2008-01-12T08:00:00Z,26.5545,-82.1715,2.01,6.74,1111122 